星链-32292 (STARLINK-32292)

导读

STARLINK-32292是美国太空探索技术公司SpaceX于2024年11月9日发射的星链(Starlink)星座卫星。该卫星运行于低地球轨道(LEO),属于星链全球卫星互联网项目的一部分,旨在为地面基础设施匮乏的偏远地区提供高速、低延迟的宽带互联网接入服务,推动全球网络覆盖,助力缩小数字鸿沟。

基本信息
目录编号:
61889
目录名称:
STARLINK-32292
国际标识:
2024-204R
轨道中心:
EARTH
卫星名称:
星链-32292
卫星全名:
星链-32292 (STARLINK-32292)
卫星状态:
在轨 (已飞行664 天)
发射日期:
2024-11-09 UTC
国别 :
美国 (US)
星等 :
--
轨道信息
数据来源 国际轨道数据 AOE轨道数据
星历时间 2026-09-04T14:28:48+0800
8小时前
查看轨道信息
2026-09-02T08:00:00+0800
2天前
查看轨道信息
半长轴 6840.821km 6840.853km
偏心率 0.0000821 0.0001042
轨道倾角 53.161° 53.161°
近地点辐角 81.400° 69.037°
升交点赤经 13.718° 24.327°
平近点角 278.710° 344.940°
近地点 462.122km 462.003km
远地点 463.246km 463.429km
周期 93.847分钟 93.848分钟
每日圈数 15.344066 15.343959
详细信息
固有亮度:
5
最大亮度:
2.5
卫星平台:
Starlink V1.0
覆盖范围:
全球
运营商:
太空探索技术公司
运营商所在国:
美国
制造商(研发单位):
太空探索技术公司
制造商所在国:
美国
使用方式:
暂无
卫星简介
Starlink 计划是 SpaceX 推出的全球卫星互联网项目,通过发射低轨道卫星,为全球尤其是偏远地区提供高速、低延迟的互联网服务。自 2019 年起,Starlink 已部署数千颗卫星,旨在缩小全球数字鸿沟,推动互联网普及。该项目还为军事、航空等行业提供通信支持,带来广泛经济效益。
2D轨道图
3D轨道图
轨道高度分析图
轨道倾角分析图
轨道综合分析图
查看轨道综合分析图
交会数据列表
事件ID 空间交会对象 最接近时刻(TCA) 交会距离 交会风险概率(CRP) 交会风险指数(CRI) 操作
CDM_260905-101706-188906-537021
2026-09-05T
10:17:12+0000
1.409 km
极远距离
3.732222E-6 低风险 0.46
CDM_260901-124805-378906-188921
2026-09-01T
12:48:29+0000
1.930 km
极远距离
2.779346E-6 低风险 0.44
CDM_260905-212204-942406-188921
2026-09-05T
21:22:55+0000
2.391 km
极远距离
1.5805E-6 低风险 0.39
CDM_260905-084306-188906-537021
2026-09-05T
08:43:24+0000
1.990 km
极远距离
1.403984E-6 低风险 0.38
CDM_260906-134704-941406-188921
2026-09-06T
13:47:41+0000
2.806 km
极远距离
1.217595E-6 低风险 0.37
CDM_260906-050105-339006-188921
2026-09-06T
05:01:04+0000
2.899 km
极远距离
5.439798E-7 极低风险 0.3
CDM_260906-133405-300206-188921
2026-09-06T
13:34:01+0000
2.540 km
极远距离
4.99594E-7 极低风险 0.29